Great Bend, NY

11:42 AM EST on February 13, 2016 (GMT -0500)
Wheeler-Sack Army Air Field

Weather History for KGTB - November, 2013

Change the Weather History Date:

Thursday, November 7, 2013

  Actual Average Record
Temperature  
Mean Temperature 44 °F -  
Max Temperature 55 °F 44 °F 66 °F (1996)
Min Temperature 34 °F 29 °F 15 °F (2002)
Degree Days  
Heating Degree Days 20    
Moisture  
Dew Point 43 °F    
Average Humidity 90    
Maximum Humidity 100    
Minimum Humidity 54    
Precipitation  
Precipitation 0.14 in - - ()
Sea Level Pressure  
Sea Level Pressure 29.82 in    
Wind  
Wind Speed 12 mph (WSW)    
Max Wind Speed 20 mph    
Max Gust Speed 29 mph    
Visibility 9 miles    
Events Rain    
Averages and records for this station are not official NWS values.
T = Trace of Precipitation, MM = Missing Value Source: NWS Daily Summary

Daily Weather History Graph

Daily Weather History Graph

Search for Another Location

Airport or City:

Trip Planner

Search our weather history database for the weather conditions in past years. The results will help you decide how hot, cold, wet, or windy it might be!

Date:

Astronomy

Nov. 07, 2013 Rise Set
Actual Time 6:47 AM EST 4:44 PM EST
Civil Twilight 6:17 AM EST 5:15 PM EST
Nautical Twilight 5:42 AM EST 5:49 PM EST
Astronomical Twilight 5:08 AM EST 6:23 PM EST
Moon 10:56 AM EST (11/7) 8:52 PM EST (11/7)
Length of Visible Light 10h 58m
Length of Day
9h 57m
Waxing Crescent, 22% of the Moon is Illuminated
Nov 7
Waxing Crescent
Nov 10
First Quarter
Nov 17
Full
Nov 25
Last Quarter
Dec 2
New

Hourly Weather History & Observations

Time (EST) Temp. Windchill Dew Point Humidity Pressure Visibility Wind Dir Wind Speed Gust Speed Precip Events Conditions
12:08 AM 55.4 °F - 51.8 °F 88% 29.77 in 10.0 mi SSW 16.1 mph 23.0 mph N/A   Overcast
12:17 AM 55.4 °F - 51.8 °F 88% 29.77 in 10.0 mi SW 15.0 mph 21.9 mph N/A   Light Drizzle
12:47 AM 55.4 °F - 53.6 °F 94% 29.77 in 10.0 mi SW 11.5 mph 20.7 mph N/A Rain Light Rain
12:58 AM 55.2 °F - 53.2 °F 93% 29.77 in 10.0 mi SW 12.7 mph 21.9 mph 0.14 in Rain Light Rain
1:13 AM 55.4 °F - 53.6 °F 94% 29.76 in 7.0 mi SW 12.7 mph 23.0 mph N/A Rain Rain
1:23 AM 55.4 °F - 53.6 °F 94% 29.74 in 10.0 mi SSW 16.1 mph 20.7 mph N/A Rain Light Rain
1:48 AM 55.4 °F - 53.6 °F 94% 29.75 in 9.0 mi SW 15.0 mph 20.7 mph N/A Rain Light Rain
1:58 AM 54.9 °F - 54.0 °F 97% 29.75 in 8.0 mi SW 15.0 mph 20.7 mph 0.00 in Rain Light Rain
2:03 AM 55.4 °F - 53.6 °F 94% 29.75 in 10.0 mi SW 12.7 mph 20.7 mph N/A Rain Light Rain
2:13 AM 55.4 °F - 53.6 °F 94% 29.75 in 8.0 mi SW 15.0 mph 21.9 mph N/A Rain Light Rain
2:28 AM 55.4 °F - 53.6 °F 94% 29.74 in 10.0 mi SW 15.0 mph 24.2 mph N/A Rain Light Rain
2:58 AM 54.9 °F - 54.3 °F 98% 29.74 in 10.0 mi SW 16.1 mph 25.3 mph 0.00 in Rain Light Rain
3:28 AM 53.6 °F - 53.6 °F 100% 29.73 in 8.0 mi WSW 15.0 mph 20.7 mph N/A Rain Rain
3:38 AM 53.6 °F - 53.6 °F 100% 29.73 in 9.0 mi SW 15.0 mph 24.2 mph N/A Rain Light Rain
3:43 AM 53.6 °F - 53.6 °F 100% 29.73 in 10.0 mi SW 12.7 mph 24.2 mph N/A Rain Light Rain
3:58 AM 54.1 °F - 54.1 °F 100% 29.73 in 9.0 mi SW 12.7 mph 19.6 mph 0.00 in Rain Light Rain
4:48 AM 53.6 °F - 53.6 °F 100% 29.72 in 6.0 mi WSW 11.5 mph - N/A Rain Rain
4:53 AM 53.6 °F - 53.6 °F 100% 29.74 in 2.5 mi West 19.6 mph 27.6 mph N/A Rain Heavy Rain
4:58 AM 51.8 °F - 51.8 °F 100% 29.75 in 3.0 mi West 12.7 mph 27.6 mph 0.00 in Rain Rain
5:03 AM 51.8 °F - 51.8 °F 100% 29.75 in 7.0 mi West 15.0 mph 28.8 mph N/A Rain Rain
5:08 AM 50.0 °F - 50.0 °F 100% 29.74 in 10.0 mi West 13.8 mph 28.8 mph N/A Rain Rain
5:13 AM 48.2 °F - 48.2 °F 100% 29.75 in 10.0 mi West 13.8 mph 21.9 mph N/A Rain Rain
5:33 AM 48.2 °F - 48.2 °F 100% 29.76 in 10.0 mi West 13.8 mph 20.7 mph N/A Rain Light Rain
5:58 AM 46.2 °F 41.2 °F 46.2 °F 100% 29.79 in 10.0 mi West 10.4 mph 20.7 mph 0.00 in Rain Light Rain
6:38 AM 44.6 °F 39.7 °F 44.6 °F 100% 29.80 in 10.0 mi West 9.2 mph 18.4 mph N/A Rain Light Rain
6:48 AM 44.6 °F 39.7 °F 44.6 °F 100% 29.80 in 10.0 mi West 9.2 mph 17.3 mph N/A Rain Light Rain
6:58 AM 44.4 °F 40.0 °F 44.4 °F 100% 29.82 in 10.0 mi West 8.1 mph - 0.00 in Rain Light Rain
7:22 AM 44.6 °F 39.2 °F 44.6 °F 100% 29.81 in 10.0 mi West 10.4 mph - N/A   Overcast
7:47 AM 42.8 °F 36.6 °F 42.8 °F 100% 29.83 in 10.0 mi West 11.5 mph - N/A   Overcast
7:58 AM 43.3 °F 38.6 °F 43.0 °F 99% 29.84 in 10.0 mi West 8.1 mph 16.1 mph 0.00 in   Overcast
8:03 AM 42.8 °F 37.5 °F 42.8 °F 100% 29.84 in 10.0 mi West 9.2 mph 16.1 mph N/A   Overcast
8:08 AM 42.8 °F 38.0 °F 42.8 °F 100% 29.84 in 10.0 mi West 8.1 mph - N/A   Overcast
8:13 AM 42.8 °F 38.6 °F 42.8 °F 100% 29.84 in 10.0 mi WSW 6.9 mph - N/A   Overcast
8:28 AM 42.8 °F 37.5 °F 42.8 °F 100% 29.84 in 10.0 mi West 9.2 mph - N/A   Overcast
8:43 AM 42.8 °F 36.6 °F 42.8 °F 100% 29.85 in 10.0 mi West 11.5 mph - N/A   Overcast
8:44 AM 42.8 °F 37.0 °F 42.8 °F 100% 29.85 in 10.0 mi West 10.4 mph - N/A   Light Drizzle
8:49 AM 42.8 °F 38.0 °F 42.8 °F 100% 29.86 in 10.0 mi West 8.1 mph - N/A   Light Drizzle
8:52 AM 42.8 °F 37.0 °F 42.8 °F 100% 29.84 in 10.0 mi West 10.4 mph - N/A   Overcast
8:58 AM 42.6 °F 37.8 °F 42.3 °F 99% 29.86 in 10.0 mi West 8.1 mph - 0.00 in   Overcast
9:58 AM 41.9 °F 35.9 °F 40.8 °F 96% 29.88 in 10.0 mi West 10.4 mph - N/A   Overcast
10:18 AM 41.0 °F 35.2 °F 39.2 °F 93% 29.87 in 10.0 mi West 9.2 mph - N/A   Overcast
10:23 AM 42.8 °F 37.5 °F 39.2 °F 87% 29.87 in 10.0 mi WNW 9.2 mph - N/A   Overcast
10:28 AM 42.8 °F 38.0 °F 39.2 °F 87% 29.87 in 10.0 mi West 8.1 mph - N/A   Overcast
10:58 AM 42.1 °F 36.6 °F 39.0 °F 89% 29.88 in 10.0 mi West 9.2 mph - N/A   Overcast
11:18 AM 42.8 °F 38.0 °F 37.4 °F 81% 29.88 in 10.0 mi West 8.1 mph - N/A   Overcast
11:58 AM 42.4 °F 36.1 °F 37.6 °F 83% 29.89 in 10.0 mi West 11.5 mph - N/A   Overcast
12:53 PM 42.8 °F 37.0 °F 33.8 °F 70% 29.87 in 10.0 mi West 10.4 mph 18.4 mph N/A   Overcast
12:58 PM 42.8 °F 37.5 °F 34.2 °F 72% 29.88 in 10.0 mi WNW 9.2 mph 18.4 mph N/A   Overcast
1:58 PM 42.8 °F 38.0 °F 31.5 °F 64% 29.87 in 10.0 mi WNW 8.1 mph 18.4 mph N/A   Overcast
2:58 PM 42.8 °F 36.6 °F 30.9 °F 63% 29.87 in 10.0 mi West 11.5 mph 17.3 mph N/A   Overcast
3:58 PM 42.4 °F 37.0 °F 28.2 °F 57% 29.88 in 10.0 mi WNW 9.2 mph - N/A   Overcast
4:58 PM 40.3 °F 33.4 °F 24.6 °F 54% 29.91 in 10.0 mi WNW 11.5 mph 20.7 mph N/A   Scattered Clouds
5:58 PM 36.9 °F 32.2 °F 24.1 °F 60% 29.92 in 10.0 mi NNW 5.8 mph - N/A   Clear
6:58 PM 35.4 °F - 25.7 °F 68% 29.94 in 10.0 mi NNE 2.3 mph - N/A   Overcast
7:58 PM 35.8 °F 31.9 °F 26.2 °F 68% 29.92 in 10.0 mi ENE 4.6 mph - N/A   Overcast
8:58 PM 35.2 °F 32.4 °F 27.5 °F 73% 29.92 in 10.0 mi SSW 3.5 mph - N/A   Overcast
9:58 PM 35.2 °F 30.3 °F 27.7 °F 74% 29.91 in 10.0 mi South 5.8 mph - N/A   Overcast
10:58 PM 34.9 °F 30.8 °F 27.3 °F 74% 29.90 in 10.0 mi SW 4.6 mph - N/A   Overcast
11:58 PM 36.1 °F 32.3 °F 26.8 °F 69% 29.89 in 10.0 mi WSW 4.6 mph - N/A   Overcast